Franklin, NC

1:56 PM EDT on May 26, 2017 (GMT -0400)
Franklin

Weather History for K1A5 - January, 2014

Change the Weather History Date:

Friday, January 10, 2014

  Actual Average (KTOC) Record (KTOC)
Temperature  
Mean Temperature 43 °F -  
Max Temperature 51 °F 47 °F 51 °F (2014)
Min Temperature 36 °F 31 °F 22 °F (2015)
Degree Days  
Heating Degree Days 22    
Moisture  
Dew Point 42 °F    
Average Humidity 97    
Maximum Humidity 100    
Minimum Humidity 92    
Precipitation  
Precipitation 0.39 in - - ()
Sea Level Pressure  
Sea Level Pressure 30.22 in    
Wind  
Wind Speed 0 mph (ESE)    
Max Wind Speed 7 mph    
Max Gust Speed -    
Visibility 5 miles    
Events Rain    
Averages and records for this station are not official NWS values.
T = Trace of Precipitation, MM = Missing Value Source: NWS Daily Summary

Daily Weather History Graph

Daily Weather History Graph

Search for Another Location

Airport or City:

Trip Planner

Search our weather history database for the weather conditions in past years. The results will help you decide how hot, cold, wet, or windy it might be!

Date:

Astronomy

Jan. 10, 2014 Rise Set
Actual Time 7:42 AM EST 5:40 PM EST
Civil Twilight 7:14 AM EST 6:07 PM EST
Nautical Twilight 6:43 AM EST 6:39 PM EST
Astronomical Twilight 6:12 AM EST 7:10 PM EST
Moon 1:40 PM EST (1/10) 2:52 AM EST (1/10)
Length of Visible Light 10h 53m
Length of Day
9h 57m
Waxing Gibbous, 75% of the Moon is Illuminated
Jan 10
Waxing Gibbous
Jan 15
Full
Jan 24
Last Quarter
Jan 30
New
Feb 6
First Quarter

Hourly Weather History & Observations

Time (EST) Temp. Dew Point Humidity Pressure Visibility Wind Dir Wind Speed Gust Speed Precip Events Conditions
12:15 AM 36.5 °F 35.6 °F 97% 30.40 in 1.0 mi Calm Calm - 0.02 in Rain Heavy Rain
12:35 AM 36.1 °F 35.2 °F 97% 30.39 in 1.2 mi Calm Calm - 0.02 in   Light Drizzle
12:55 AM 36.5 °F 35.6 °F 97% 30.38 in 2.5 mi Calm Calm - 0.03 in Rain Light Rain
1:15 AM 36.3 °F 35.4 °F 97% 30.37 in 2.5 mi Calm Calm - N/A   Heavy Drizzle
1:35 AM 36.7 °F 35.8 °F 97% 30.38 in 1.8 mi Calm Calm - 0.03 in Rain Rain
1:55 AM 36.3 °F 35.6 °F 97% 30.36 in 2.0 mi Calm Calm - 0.05 in   Drizzle
2:15 AM 36.5 °F 35.8 °F 97% 30.36 in 3.0 mi Calm Calm - N/A   Overcast
2:35 AM 36.5 °F 35.6 °F 97% 30.36 in 3.0 mi Calm Calm - N/A Rain Light Rain
2:55 AM 36.1 °F 35.2 °F 97% 30.35 in 2.0 mi Calm Calm - N/A   Drizzle
3:15 AM 36.5 °F 35.6 °F 97% 30.35 in 2.5 mi Calm Calm - 0.01 in Rain Rain
3:35 AM 36.5 °F 35.6 °F 97% 30.34 in 2.0 mi Calm Calm - 0.02 in Rain Rain
3:55 AM 36.3 °F 35.6 °F 97% 30.33 in 1.5 mi Calm Calm - 0.03 in   Overcast
4:15 AM 36.3 °F 35.6 °F 97% 30.33 in 1.8 mi Calm Calm - N/A Rain Light Rain
4:35 AM 36.1 °F 35.2 °F 97% 30.32 in 1.5 mi Calm Calm - N/A Rain Light Rain
4:55 AM 36.3 °F 35.6 °F 97% 30.31 in 1.5 mi Calm Calm - 0.02 in Rain Rain
5:15 AM 36.5 °F 35.6 °F 97% 30.31 in 2.0 mi Calm Calm - N/A   Drizzle
5:35 AM 36.3 °F 35.4 °F 97% 30.30 in 2.0 mi Calm Calm - 0.01 in   Drizzle
5:55 AM 36.5 °F 35.6 °F 97% 30.30 in 2.0 mi Calm Calm - 0.01 in   Heavy Drizzle
6:15 AM 36.1 °F 35.2 °F 97% 30.29 in 1.2 mi Calm Calm - 0.01 in Rain Light Rain
6:35 AM 36.3 °F 35.4 °F 97% 30.29 in 1.5 mi Calm Calm - 0.08 in Rain Light Rain
6:55 AM 36.5 °F 35.6 °F 97% 30.30 in 2.0 mi Calm Calm - 0.12 in Rain Heavy Rain
7:15 AM 36.7 °F 35.8 °F 97% 30.30 in 2.0 mi Calm Calm - 0.01 in   Drizzle
7:35 AM 36.7 °F 35.8 °F 97% 30.31 in 3.0 mi Calm Calm - 0.02 in   Overcast
7:55 AM 36.5 °F 35.6 °F 97% 30.31 in 3.0 mi Calm Calm - 0.02 in   Light Drizzle
8:15 AM 36.5 °F 35.6 °F 97% 30.30 in 3.0 mi Calm Calm - N/A   Overcast
8:35 AM 36.9 °F 36.0 °F 97% 30.30 in 2.0 mi Calm Calm - N/A   Overcast
8:55 AM 37.6 °F 36.7 °F 97% 30.30 in 2.0 mi Calm Calm - 0.01 in Rain Rain
9:15 AM 37.9 °F 37.0 °F 97% 30.31 in 3.0 mi Calm Calm - N/A Rain Light Rain
9:35 AM 38.5 °F 37.6 °F 97% 30.31 in 3.0 mi Calm Calm - N/A   Overcast
9:55 AM 39.2 °F 38.3 °F 97% 30.31 in 7.0 mi Calm Calm - N/A   Overcast
10:15 AM 40.1 °F 39.2 °F 97% 30.31 in 7.0 mi Calm Calm - N/A   Overcast
10:35 AM 40.5 °F 39.6 °F 97% 30.30 in 1.5 mi Calm Calm - 0.01 in   Drizzle
10:55 AM 41.4 °F 40.6 °F 97% 30.30 in 7.0 mi Calm Calm - 0.01 in   Overcast
11:15 AM 42.1 °F 41.4 °F 97% 30.29 in 7.0 mi Calm Calm - N/A   Overcast
11:35 AM 43.0 °F 42.1 °F 97% 30.27 in 10.0 mi Calm Calm - N/A   Overcast
11:55 AM 43.2 °F 42.4 °F 97% 30.26 in 10.0 mi Calm Calm - N/A   Overcast
12:15 PM 43.7 °F 43.5 °F 99% 30.24 in 10.0 mi Calm Calm - N/A   Overcast
12:35 PM 44.2 °F 44.1 °F 99% 30.22 in 10.0 mi Calm Calm - N/A   Overcast
12:55 PM 45.0 °F 44.8 °F 99% 30.20 in 10.0 mi Calm Calm - N/A   Overcast
1:15 PM 45.9 °F 45.7 °F 99% 30.18 in 10.0 mi Calm Calm - N/A   Overcast
1:35 PM 46.9 °F 46.4 °F 98% 30.17 in 10.0 mi Calm Calm - N/A   Overcast
1:55 PM 48.0 °F 47.1 °F 97% 30.16 in 10.0 mi Calm Calm - N/A   Overcast
2:15 PM 49.1 °F 47.5 °F 94% 30.15 in 10.0 mi Calm Calm - N/A   Overcast
2:35 PM 49.6 °F 48.0 °F 94% 30.14 in 10.0 mi Calm Calm - N/A   Overcast
2:55 PM 50.0 °F 48.2 °F 94% 30.14 in 10.0 mi Calm Calm - N/A   Overcast
3:15 PM 50.5 °F 48.4 °F 92% 30.14 in 10.0 mi Calm Calm - N/A   Overcast
3:35 PM 50.2 °F 48.6 °F 94% 30.14 in 4.0 mi Calm Calm - N/A   Overcast
3:55 PM 50.7 °F 49.1 °F 94% 30.13 in 10.0 mi Calm Calm - N/A   Overcast
4:15 PM 50.9 °F 49.1 °F 94% 30.13 in 10.0 mi Calm Calm - N/A   Overcast
4:35 PM 50.9 °F 49.1 °F 94% 30.13 in 10.0 mi Calm Calm - N/A   Overcast
4:55 PM 50.9 °F 50.0 °F 97% 30.12 in 10.0 mi Calm Calm - N/A   Overcast
5:15 PM 50.4 °F 50.0 °F 99% 30.12 in 10.0 mi Calm Calm - N/A   Overcast
5:35 PM 48.7 °F 48.6 °F 99% 30.11 in 10.0 mi Calm Calm - N/A   Overcast
5:55 PM 47.1 °F 47.1 °F 100% 30.12 in 10.0 mi Calm Calm - N/A   Overcast
6:15 PM 46.4 °F 46.4 °F 100% 30.12 in 10.0 mi Calm Calm - N/A Rain Light Rain
6:35 PM 46.0 °F 46.0 °F 100% 30.11 in 7.0 mi Calm Calm - N/A   Overcast
6:55 PM 45.5 °F 45.5 °F 100% 30.10 in 5.0 mi Calm Calm - N/A   Drizzle
7:15 PM 44.6 °F 44.4 °F 99% 30.09 in 2.5 mi Calm Calm - N/A   Light Drizzle
7:35 PM 44.1 °F 43.7 °F 99% 30.09 in 0.8 mi Calm Calm - N/A   Overcast
7:55 PM 43.9 °F 43.5 °F 99% 30.09 in 1.0 mi Calm Calm - N/A   Overcast
8:15 PM 43.3 °F 43.0 °F 99% 30.09 in 0.8 mi Calm Calm - N/A   Overcast
8:35 PM 43.3 °F 42.8 °F 98% 30.08 in 0.8 mi Calm Calm - N/A   Overcast
8:55 PM 43.3 °F 42.8 °F 98% 30.08 in 1.0 mi Calm Calm - N/A   Overcast
9:15 PM 43.7 °F 43.0 °F 97% 30.08 in 2.5 mi Calm Calm - N/A   Light Drizzle
9:35 PM 44.2 °F 43.7 °F 98% 30.07 in 3.0 mi Calm Calm - N/A Rain Light Rain
9:55 PM 45.1 °F 44.8 °F 99% 30.07 in 5.0 mi Calm Calm - N/A   Overcast
10:15 PM 45.7 °F 45.0 °F 97% 30.07 in 3.0 mi Calm Calm - 0.02 in Rain Heavy Rain
10:35 PM 48.6 °F 47.8 °F 97% 30.05 in 7.0 mi East 4.6 mph - 0.05 in Rain Light Rain
10:55 PM 48.9 °F 48.2 °F 97% 30.05 in 4.0 mi Calm Calm - 0.09 in Rain Rain
11:15 PM 49.3 °F 48.6 °F 97% 30.05 in 10.0 mi ESE 3.5 mph - N/A   Drizzle
11:35 PM 49.8 °F 49.1 °F 97% 30.03 in 10.0 mi SE 6.9 mph - N/A Rain Rain
11:55 PM 51.1 °F 50.4 °F 97% 30.03 in 10.0 mi SE 3.5 mph - N/A   Light Drizzle